Danbury, CT

3:59 PM EDT on April 27, 2017 (GMT -0400)
Danbury Municipal

Weather History for KDXR - January, 2013

Change the Weather History Date:

Friday, January 4, 2013

  Actual Average Record
Temperature  
Mean Temperature 26 °F -  
Max Temperature 36 °F 37 °F 62 °F (1950)
Min Temperature 17 °F 22 °F -12 °F (1981)
Degree Days  
Heating Degree Days 38    
Moisture  
Dew Point 19 °F    
Average Humidity 66    
Maximum Humidity 88    
Minimum Humidity 54    
Precipitation  
Precipitation 0.00 in - - ()
Sea Level Pressure  
Sea Level Pressure 29.98 in    
Wind  
Wind Speed 5 mph (WSW)    
Max Wind Speed 16 mph    
Max Gust Speed 26 mph    
Visibility 10 miles    
Events      
Averages and records for this station are not official NWS values.
T = Trace of Precipitation, MM = Missing Value Source: NWS Daily Summary

Daily Weather History Graph

Daily Weather History Graph

Search for Another Location

Airport or City:

Trip Planner

Search our weather history database for the weather conditions in past years. The results will help you decide how hot, cold, wet, or windy it might be!

Date:

Astronomy

Jan. 04, 2013 Rise Set
Actual Time 7:20 AM EST 4:38 PM EST
Civil Twilight 6:49 AM EST 5:09 PM EST
Nautical Twilight 6:14 AM EST 5:43 PM EST
Astronomical Twilight 5:40 AM EST 6:17 PM EST
Moon No Moon Rise 10:56 AM EST (1/4)
Length of Visible Light 10h 20m
Length of Day
9h 18m
Waning Gibbous, 55% of the Moon is Illuminated
Jan 4
Waning Gibbous
Jan 4
Last Quarter
Jan 11
New
Jan 18
First Quarter
Jan 26
Full

Hourly Weather History & Observations

Time (EST) Temp. Windchill Dew Point Humidity Pressure Visibility Wind Dir Wind Speed Gust Speed Precip Events Conditions
12:53 AM 19.0 °F - 14.0 °F 81% 30.04 in 10.0 mi Calm Calm - N/A   Overcast
1:53 AM 17.1 °F - 12.9 °F 84% 30.04 in 9.0 mi Calm Calm - N/A   Mostly Cloudy
2:53 AM 17.1 °F 11.7 °F 14.0 °F 88% 30.04 in 9.0 mi SW 3.5 mph - N/A   Overcast
3:53 AM 18.0 °F - 15.1 °F 88% 30.04 in 10.0 mi Calm Calm - N/A   Overcast
4:53 AM 21.0 °F 13.4 °F 16.0 °F 81% 30.04 in 10.0 mi WSW 5.8 mph - N/A   Clear
5:53 AM 23.0 °F 17.0 °F 18.0 °F 81% 30.04 in 10.0 mi WSW 4.6 mph - N/A   Overcast
6:53 AM 27.0 °F 21.6 °F 19.9 °F 75% 30.04 in 10.0 mi WSW 4.6 mph - N/A   Mostly Cloudy
8:53 AM 30.9 °F 24.3 °F 21.9 °F 69% 30.05 in 10.0 mi SW 6.9 mph - N/A   Overcast
9:53 AM 32.0 °F 24.2 °F 21.9 °F 66% 30.04 in 10.0 mi SW 9.2 mph - N/A   Overcast
10:53 AM 33.1 °F 24.4 °F 21.9 °F 64% 30.02 in 10.0 mi WSW 11.5 mph - N/A   Overcast
11:53 AM 33.1 °F 23.9 °F 21.9 °F 64% 29.99 in 10.0 mi WSW 12.7 mph 18.4 mph N/A   Overcast
12:53 PM 34.0 °F 27.2 °F 21.0 °F 59% 29.95 in 10.0 mi West 8.1 mph 24.2 mph N/A   Mostly Cloudy
1:53 PM 36.0 °F 28.5 °F 21.0 °F 55% 29.93 in 10.0 mi West 10.4 mph - N/A   Clear
2:53 PM 35.1 °F 26.4 °F 21.0 °F 57% 29.93 in 10.0 mi SW 12.7 mph 19.6 mph N/A   Clear
3:53 PM 35.1 °F 27.9 °F 19.9 °F 54% 29.93 in 10.0 mi WSW 9.2 mph - N/A   Clear
4:53 PM 33.1 °F 26.1 °F 19.9 °F 59% 29.92 in 10.0 mi WSW 8.1 mph - N/A   Clear
5:53 PM 33.1 °F 25.5 °F 19.0 °F 56% 29.93 in 10.0 mi WSW 9.2 mph - N/A   Clear
6:53 PM 30.9 °F 24.3 °F 19.0 °F 61% 29.94 in 10.0 mi WSW 6.9 mph - N/A   Clear
7:53 PM 32.0 °F 25.6 °F 19.0 °F 59% 29.94 in 10.0 mi West 6.9 mph - N/A   Clear
8:53 PM 30.9 °F 22.8 °F 18.0 °F 59% 29.94 in 10.0 mi West 9.2 mph - N/A   Clear
9:53 PM 32.0 °F 23.0 °F 18.0 °F 56% 29.94 in 10.0 mi West 11.5 mph - N/A   Clear
10:53 PM 32.0 °F 21.2 °F 18.0 °F 56% 29.95 in 10.0 mi WSW 16.1 mph 26.5 mph N/A   Clear
11:53 PM 32.0 °F 24.2 °F 17.1 °F 54% 29.96 in 10.0 mi West 9.2 mph 25.3 mph N/A   Clear